Weather in Skalat

Ukraine / Ternopil District     49°25′44″N   25°58′58″E
temp.,
°C
wind,
m/s
gust,
m/s
humid.,
%
clouds,
%
prec.,
mm/h
press.,
hPa
HPBL,
m
22 january, sat
sat2223:00−4wnw81594100 0.3 1012993
02:00−4wnw71489100 0.6 1012745
05:00−5wnw71392100 0.1 1012728
08:00−5wnw7139099 0.1 1012604
11:00−5w71392100 0.1 1013836
14:00−3nw61092100 0.9 1013933
17:00−5nnw5118994 0.3 1017396
20:00−5nw61291100 0.3 1019714
23 january, sun
sun2323:00−5nw61194100 0.3 1020880
02:00−6nw71294100 0.9 1020695
05:00−6nw71293100 0.8 1021813
08:00−7nnw61293100 1.2 1022762
11:00−7n7108998 0.3 1025929
14:00−8nne698998 0.3 1027686
17:00−9nne599186 0.0 1030320
20:00−10n4996100 0.1 1032274
24 january, mon
mon2423:00−11n2498100 0.1 103599
02:00−12n379888 0.1 1036130
05:00−14nnw259992 0.0 103792
08:00−14nnw249875 0.1 103980
11:00−10nnw359279 0.0 1039207
14:00−8nnw468996 0.0 1037351
17:00−11nw38967 0.0 1037144
20:00−12nnw399653 0.0 1037151
25 january, tue
tue2523:00−13nw369870 0.0 103686
02:00−13nw369875 0.0 103599
05:00−14wnw249865 0.0 103458
08:00−14wnw27976 0.0 103395
11:00−9wnw378891 0.0 1031191
14:00−6w3785100 0.0 1029300
17:00−6w3996100 0.3 1027284
20:00−5w41096100 0.8 1025294
26 january, wed
wed2623:00−3wnw51296100 0.7 1023440
02:00−2nw61296100 1.2 1022555
05:00−2nw61396100 0.6 1022543
08:00−2nnw61395100 1.1 1023589
11:00−2nnw6109389 0.2 1024741
14:00−4nnw6990100 0.3 1026554
17:00−5nnw6985100 0.1 1027675
20:00−6nw4789100 0.2 1028450